| time (UTC) | temp F | wind direction | speed knots | gust knots | rain 1hr in | rain 24hr in | rain mn in | humidity % | barometer mb |
| 20260507150056 | 70 | 153 | 0.9 | 4.3 | 0.00 | 0.00 | 0.00 | 29 | 1018.7 |
| 20260507140105 | 61 | 120 | 0.9 | 3.5 | 0.00 | 0.00 | 0.00 | 41 | 1018.6 |
| 20260507130100 | 53 | 155 | 0.0 | 1.7 | 0.00 | 0.00 | 0.00 | 50 | 1018.4 |
| 20260507120116 | 55 | 38 | 0.0 | 1.7 | 0.00 | 0.00 | 0.00 | 48 | 1017.6 |
| 20260507110113 | 58 | 38 | 0.9 | 2.6 | 0.00 | 0.00 | 0.00 | 41 | 1017.3 |
| 20260507100112 | 58 | 135 | 0.0 | 0.0 | 0.00 | 0.00 | 0.00 | 43 | 1017.1 |
| 20260507090115 | 60 | 113 | 0.0 | 3.5 | 0.00 | 0.00 | 0.00 | 32 | 1017.0 |
| 20260507080109 | 65 | 115 | 0.0 | 0.0 | 0.00 | 0.00 | 0.00 | 26 | 1017.4 |
| 20260507070030 | 70 | 109 | 0.9 | 3.5 | 0.00 | 0.00 | 0.00 | 27 | 1017.6 |
| 20260507060031 | 72 | 85 | 2.6 | 5.2 | 0.00 | 0.00 | 0.00 | 26 | 1017.0 |
| 20260507050032 | 76 | 133 | 5.2 | 12.2 | 0.00 | 0.00 | 0.00 | 20 | 1016.7 |
| 20260507040030 | 70 | 67 | 1.7 | 3.5 | 0.00 | 0.00 | 0.00 | 29 | 1015.5 |
| 20260507030028 | 70 | 295 | 0.0 | 2.6 | 0.00 | 0.00 | 0.00 | 34 | 1014.3 |
| 20260507020032 | 79 | 302 | 0.0 | 0.0 | 0.00 | 0.00 | 0.00 | 24 | 1013.5 |
| 20260507010030 | 82 | 303 | 0.9 | 5.2 | 0.00 | 0.00 | 0.00 | 19 | 1013.1 |
| 20260507000030 | 84 | 298 | 4.3 | 9.6 | 0.00 | 0.00 | 0.00 | 16 | 1012.7 |
| 20260506230029 | 87 | 340 | 4.3 | 9.6 | 0.00 | 0.00 | 0.00 | 17 | 1012.7 |
| 20260506220034 | 85 | 300 | 4.3 | 10.4 | 0.00 | 0.00 | 0.00 | 17 | 1012.9 |
| 20260506210029 | 84 | 305 | 3.5 | 8.7 | 0.00 | 0.00 | 0.00 | 17 | 1013.8 |
| 20260506200035 | 83 | 276 | 1.7 | 11.3 | 0.00 | 0.00 | 0.00 | 19 | 1015.0 |
| 20260506190034 | 80 | 307 | 3.5 | 8.7 | 0.00 | 0.00 | 0.00 | 21 | 1016.3 |
| 20260506180031 | 77 | 280 | 1.7 | 7.0 | 0.00 | 0.00 | 0.00 | 25 | 1017.1 |
| 20260506170034 | 73 | 295 | 1.7 | 5.2 | 0.00 | 0.00 | 0.00 | 28 | 1017.6 |
| 20260506160035 | 70 | 43 | 1.7 | 3.5 | 0.00 | 0.00 | 0.00 | 36 | 1017.5 |